This demonstration page uses our WeatherBlox Daily Observations layout. Learn more.

Left ArrowRight Arrow

47.50024, -111.30081

Hourly Observations for May 28, 2021

Temp ( °F °C ) Dew Point ( °F °C ) Humidity (%) Winds ( mph kmh ) Pressure ( in mb ) Visibility ( mi km ) Precip ( " mm )
12:53 am 00:53 Mostly Clear 54 12.2 38 3.3 55 55 SSW 8 13 29.75 1007 10 16 0.00 0.00
1:53 am 01:53 Clear 53 11.7 40 4.4 61 61 WNW 13 20 29.80 1009 10 16 0.00 0.00
2:53 am 02:53 Mostly Clear 52 11.1 41 5 66 66 NW 10 17 29.85 1011 10 16 0.00 0.00
3:53 am 03:53 Mostly Cloudy 50 10 40 4.4 68 68 WSW 10 17 29.86 1011 10 16 0.00 0.00
4:53 am 04:53 Clear 47 8.3 39 3.9 74 74 WSW 8 13 29.87 1012 10 16 0.00 0.00
5:53 am 05:53 Mostly Sunny 49 9.4 38 3.3 66 66 W 6 9 29.88 1012 10 16 0.00 0.00
6:53 am 06:53 Sunny 52 11.1 34 1.1 50 50 WSW 23 37 29.89 1012 10 16 0.00 0.00
7:53 am 07:53 Sunny 51 10.6 32 0 48 48 WSW 21 33 29.91 1013 10 16 0.00 0.00
8:53 am 08:53 Sunny 55 12.8 29 -1.7 37 37 WSW 26 43 29.92 1013 10 16 0.00 0.00
9:53 am 09:53 Sunny 57 13.9 26 -3.3 30 30 W 25 41 29.92 1013 10 16 0.00 0.00
10:01 am 10:01 Sunny 57 13.9 25 -3.9 29 29 W 30 48 29.87 1012 10 16 0.00 0.00
10:53 am 10:53 Sunny 57 13.9 25 -3.9 29 29 W 28 44 29.94 1014 10 16 0.00 0.00
11:53 am 11:53 Sunny 58 14.4 25 -3.9 28 28 W 28 44 29.95 1014 10 16 0.00 0.00
12:53 pm 12:53 Sunny 59 15 25 -3.9 27 27 W 31 50 29.96 1015 10 16 0.00 0.00
1:53 pm 13:53 Sunny 60 15.6 26 -3.3 27 27 W 24 39 29.98 1015 10 16 0.00 0.00
2:53 pm 14:53 Sunny 60 15.6 27 -2.8 28 28 WSW 24 39 29.98 1015 10 16 0.00 0.00
3:53 pm 15:53 Sunny 60 15.6 27 -2.8 28 28 WSW 23 37 29.98 1015 10 16 0.00 0.00
4:53 pm 16:53 Mostly Sunny 61 16.1 25 -3.9 25 25 W 22 35 30.00 1016 10 16 0.00 0.00
5:53 pm 17:53 Mostly Sunny 60 15.6 24 -4.4 25 25 W 23 37 29.99 1016 10 16 0.00 0.00
6:53 pm 18:53 Sunny 59 15 24 -4.4 26 26 W 24 39 29.99 1016 10 16 0.00 0.00
7:53 pm 19:53 Sunny 56 13.3 23 -5 28 28 W 20 31 30.02 1017 10 16 0.00 0.00
8:53 pm 20:53 Sunny 50 10 26 -3.3 39 39 W 14 22 30.05 1018 10 16 0.00 0.00
9:53 pm 21:53 Clear 45 7.2 28 -2.2 52 52 WSW 14 22 30.07 1018 10 16 0.00 0.00
10:53 pm 22:53 Clear 46 7.8 29 -1.7 51 51 WSW 15 24 30.08 1019 10 16 0.00 0.00
11:53 pm 23:53 Clear 38 3.3 29 -1.7 70 70 SW 10 17 30.12 1020 10 16 0.00 0.00

Powered by AerisWeather